IZ3MEZ-13 Weather Reports


time (UTC)temp
C
wind
direction
speed
KPH
gust
KPH
rain 1hr
cm
rain 24hr
cm
rain mn
cm
humidity
%
barometer
mb
20260507210517 15 0.0 0.0 0.00 0.00 0.00 84 1016.8
20260507205527 15 9 0.0 1.6 0.00 0.00 0.00 84 1016.6
20260507204516 15 0.0 0.0 0.00 0.00 0.00 84 1016.5
20260507203523 15 0.0 0.0 0.00 0.00 0.00 85 1016.5
20260507202521 15 22 0.0 3.2 0.00 0.00 0.00 86 1016.3
20260507201518 14 0.0 0.0 0.00 0.00 0.00 85 1016.1
20260507200525 15 0.0 0.0 0.00 0.00 0.00 84 1015.8
20260507195521 15 0.0 0.0 0.00 0.00 0.00 83 1015.8
20260507194520 15 0.0 0.0 0.00 0.00 0.00 82 1015.8
20260507193519 15 0.0 0.0 0.00 0.00 0.00 81 1015.6
20260507192531 16 0.0 0.0 0.00 0.00 0.00 80 1015.4
20260507191520 16 0.0 0.0 0.00 0.00 0.00 79 1015.3
20260507190527 17 0.0 0.0 0.00 0.00 0.00 78 1015.0
20260507185515 17 0.0 0.0 0.00 0.00 0.00 76 1015.1
20260507184518 17 0.0 0.0 0.00 0.00 0.00 75 1014.8
20260507183521 18 0.0 0.0 0.00 0.00 0.00 75 1014.7
20260507182519 18 0.0 0.0 0.00 0.00 0.00 74 1014.7
20260507181524 18 0.0 0.0 0.00 0.00 0.00 74 1014.6
20260507180521 18 0.0 0.0 0.00 0.00 0.00 73 1014.3
20260507175517 19 0.0 0.0 0.00 0.00 0.00 71 1014.2
20260507174526 20 0.0 0.0 0.00 0.00 0.00 69 1013.9
20260507173529 20 0.0 0.0 0.00 0.00 0.00 69 1013.7
20260507172522 21 357 0.0 1.6 0.00 0.00 0.00 68 1013.6
20260507171516 21 359 0.0 1.6 0.00 0.00 0.00 66 1013.7
20260507170516 21 7 0.0 3.2 0.00 0.00 0.00 63 1013.7
20260507165531 22 0 0.0 4.8 0.00 0.00 0.00 61 1013.6
20260507164528 22 346 0.0 4.8 0.00 0.00 0.00 61 1013.5
20260507163516 21 8 1.6 6.4 0.00 0.00 0.00 59 1013.6
20260507162517 21 8 1.6 4.8 0.00 0.00 0.00 59 1013.5
20260507161526 21 11 0.0 4.8 0.00 0.00 0.00 58 1013.5
20260507160518 21 21 0.0 3.2 0.00 0.00 0.00 57 1013.7
20260507155525 22 10 0.0 4.8 0.00 0.00 0.00 54 1013.6
20260507154520 23 0.0 0.0 0.00 0.00 0.00 51 1013.5
20260507153519 24 0.0 0.0 0.00 0.00 0.00 49 1013.5
20260507152527 23 178 0.0 6.4 0.00 0.00 0.00 49 1013.3
20260507151517 25 207 0.0 3.2 0.00 0.00 0.00 46 1013.3
20260507150516 25 219 1.6 9.7 0.00 0.00 0.00 46 1013.1
20260507145516 25 217 4.8 16.1 0.00 0.00 0.00 46 1013.2
20260507144517 25 236 0.0 3.2 0.00 0.00 0.00 47 1013.2
20260507143524 26 228 8.0 16.1 0.00 0.00 0.00 44 1013.3
20260507142520 26 213 1.6 4.8 0.00 0.00 0.00 46 1013.3
20260507141525 26 221 8.0 12.9 0.00 0.00 0.00 46 1013.4
20260507140518 23 233 1.6 6.4 0.00 0.00 0.00 51 1013.4
20260507135528 23 0.0 0.0 0.00 0.00 0.00 50 1013.6
20260507134521 25 222 3.2 11.3 0.00 0.00 0.00 47 1013.6
20260507133528 27 207 3.2 12.9 0.00 0.00 0.00 47 1013.8
20260507132517 26 207 4.8 22.5 0.00 0.00 0.00 48 1013.6
20260507131519 26 223 8.0 14.5 0.00 0.05 0.00 48 1013.6
20260507130518 26 224 3.2 12.9 0.00 0.10 0.00 51 1013.6
20260507125519 25 208 8.0 14.5 0.00 0.18 0.00 53 1013.7
20260507124523 25 217 3.2 16.1 0.00 0.18 0.00 51 1013.8
20260507123524 25 226 4.8 14.5 0.00 0.18 0.00 54 1013.7
20260507122521 23 205 3.2 12.9 0.00 0.18 0.00 58 1013.8
20260507121525 24 201 1.6 6.4 0.00 0.18 0.00 56 1013.8
20260507120520 25 205 4.8 14.5 0.00 0.18 0.00 57 1013.8
20260507115527 24 219 1.6 6.4 0.00 0.18 0.00 57 1013.8
20260507114519 24 224 3.2 20.9 0.00 0.18 0.00 58 1013.8
20260507113516 24 223 4.8 12.9 0.00 0.18 0.00 61 1014.0
20260507112522 23 244 0.0 9.7 0.00 0.18 0.00 60 1014.1
20260507111523 24 222 3.2 6.4 0.00 0.18 0.00 59 1014.2
20260507110518 23 211 4.8 12.9 0.00 0.18 0.00 63 1014.3
20260507105522 23 243 0.0 4.8 0.00 0.18 0.00 62 1014.4
20260507104519 23 242 0.0 4.8 0.00 0.18 0.00 65 1014.6
20260507103534 22 221 0.0 3.2 0.00 0.18 0.00 69 1014.7
20260507102531 21 235 0.0 4.8 0.00 0.18 0.00 68 1014.8
20260507101525 22 218 3.2 16.1 0.00 0.18 0.00 67 1014.8
20260507100522 21 226 3.2 11.3 0.00 0.18 0.00 72 1014.7
20260507095517 20 219 3.2 9.7 0.00 0.18 0.00 72 1014.7
20260507094534 20 224 3.2 4.8 0.00 0.18 0.00 74 1014.8
20260507093529 20 333 0.0 1.6 0.00 0.20 0.00 74 1014.8
20260507092526 20 217 1.6 4.8 0.00 0.20 0.00 75 1014.8
20260507091521 20 259 1.6 4.8 0.00 0.23 0.00 75 1014.8
20260507090518 19 219 1.6 4.8 0.00 0.23 0.00 80 1014.9
20260507085533 19 16 1.6 3.2 0.00 0.23 0.00 80 1014.8
20260507084530 18 347 1.6 4.8 0.00 0.23 0.00 84 1014.7
20260507083525 17 188 0.0 1.6 0.00 0.23 0.00 85 1014.6
20260507082522 18 203 1.6 4.8 0.00 0.23 0.00 86 1014.7
20260507081537 18 199 0.0 3.2 0.00 0.23 0.00 89 1014.7
20260507080532 17 346 1.6 4.8 0.00 0.23 0.00 91 1014.7
20260507075529 16 272 0.0 1.6 0.00 0.23 0.00 92 1014.6
20260507074524 16 25 0.0 1.6 0.00 0.23 0.00 92 1014.6
20260507073520 16 358 0.0 1.6 0.00 0.23 0.00 92 1014.5
20260507072535 16 3 1.6 4.8 0.00 0.23 0.00 93 1014.4
20260507071532 16 0.0 0.0 0.00 0.23 0.00 94 1014.5
20260507070527 15 9 1.6 4.8 0.00 0.23 0.00 94 1014.3
20260507065524 15 39 1.6 3.2 0.00 0.23 0.00 95 1014.3
20260507064519 15 0.0 0.0 0.00 0.23 0.00 95 1014.3
20260507063536 15 5 1.6 3.2 0.00 0.23 0.00 96 1014.2
20260507062531 14 8 0.0 1.6 0.00 0.23 0.00 96 1014.3
20260507061529 14 23 0.0 3.2 0.00 0.23 0.00 96 1014.1
20260507060523 13 14 1.6 4.8 0.00 0.23 0.00 96 1014.1
20260507055518 13 21 1.6 4.8 0.00 0.23 0.00 96 1014.0
20260507054535 13 45 0.0 1.6 0.00 0.23 0.00 96 1013.9
20260507053530 13 47 0.0 1.6 0.00 0.23 0.00 96 1013.8
20260507052525 13 0.0 0.0 0.00 0.23 0.00 96 1013.6
20260507051522 13 41 0.0 1.6 0.00 0.23 0.00 96 1013.7
20260507050537 13 0.0 0.0 0.00 0.23 0.00 96 1013.4
20260507045534 13 0.0 0.0 0.00 0.23 0.00 96 1013.5
20260507044529 13 0.0 0.0 0.00 0.23 0.00 96 1013.3
20260507043525 13 0.0 0.0 0.00 0.23 0.00 96 1013.3
20260507042520 13 0.0 0.0 0.00 0.23 0.00 96 1013.1
20260507041537 13 0.0 0.0 0.00 0.23 0.00 96 1012.9
20260507040532 13 0.0 0.0 0.00 0.23 0.00 96 1013.0
20260507035529 13 0.0 0.0 0.00 0.23 0.00 96 1012.9
20260507034524 13 0.0 0.0 0.00 0.25 0.00 96 1012.9
20260507033519 13 0.0 0.0 0.00 0.25 0.00 96 1012.7
20260507032534 13 0.0 0.0 0.00 0.25 0.00 96 1012.9
20260507031531 13 0.0 0.0 0.00 0.25 0.00 96 1012.7
20260507030526 13 0.0 0.0 0.00 0.23 0.00 96 1012.7
20260507025523 13 0.0 0.0 0.00 0.23 0.00 95 1012.7
20260507024520 13 0.0 0.0 0.00 0.23 0.00 95 1012.7
20260507023535 13 17 0.0 3.2 0.00 0.23 0.00 96 1012.8
20260507022532 13 59 0.0 1.6 0.00 0.23 0.00 96 1012.7
20260507021527 13 42 0.0 3.2 0.00 0.23 0.00 96 1012.7
20260507020522 13 26 1.6 3.2 0.00 0.23 0.00 96 1012.7
20260507015535 12 25 0.0 1.6 0.00 0.23 0.00 95 1012.6
20260507014530 12 0.0 0.0 0.00 0.23 0.00 95 1012.5
20260507013526 12 0.0 0.0 0.00 0.23 0.00 95 1012.5
20260507012521 12 0.0 0.0 0.00 0.23 0.00 94 1012.4
20260507011518 12 0.0 0.0 0.00 0.23 0.00 94 1012.5
20260507010533 13 0.0 0.0 0.00 0.23 0.00 95 1012.6
20260507005528 12 0.0 0.0 0.00 0.23 0.00 95 1012.7
20260507004525 12 0.0 0.0 0.00 0.23 0.00 95 1012.5
20260507003520 12 0.0 0.0 0.00 0.23 0.00 95 1012.6
20260507002537 12 0.0 0.0 0.00 0.23 0.00 94 1012.5
20260507001532 12 0.0 0.0 0.00 0.23 0.00 94 1012.4
20260507000529 13 0.0 0.0 0.00 0.23 0.00 94 1012.5
20260506235524 13 0.0 0.0 0.00 0.23 0.00 94 1012.6
20260506234521 13 0.0 0.0 0.00 0.23 0.00 94 1012.6
20260506233536 13 0.0 0.0 0.00 0.23 0.00 94 1012.5
20260506232533 12 0.0 0.0 0.00 0.23 0.00 94 1012.5
20260506231527 12 0.0 0.0 0.00 0.23 0.00 94 1012.4
20260506230522 12 0.0 0.0 0.00 0.23 0.00 94 1012.6
20260506225518 13 0.0 0.0 0.00 0.23 0.00 94 1012.3
20260506224517 13 0.0 0.0 0.00 0.23 0.00 94 1012.5
20260506223524 13 0.0 0.0 0.00 0.23 0.00 93 1012.6
20260506222518 13 0.0 0.0 0.00 0.23 0.00 93 1012.4
20260506221519 13 0.0 0.0 0.00 0.23 0.00 93 1012.5
20260506220518 13 0.0 0.0 0.00 0.23 0.23 93 1012.4
20260506215522 13 0.0 0.0 0.00 0.23 0.23 93 1012.4
20260506214519 13 0.0 0.0 0.00 0.23 0.23 93 1012.3
20260506213524 13 0.0 0.0 0.00 0.23 0.23 92 1012.3
20260506212520 14 0.0 0.0 0.00 0.23 0.23 92 1012.3
20260506211521 14 0.0 0.0 0.00 0.23 0.23 93 1012.3